When you browse on this site, cookies collect data to enhance your experience and personalize the content and advertising you see.
Visit our Privacy Policy to learn more. By continuing to use the site, you agree to this use of cookies and data.
  • In Belgien
  • Länderverzeichnis
  • Für 7 Tage
  • Wassertemperatur
  • Wetterkarte
  • Widgets
  • user-avatar
    Anmelden

    Stündliche Wetter Mostar

    Heute, 21 September, Samstag

    Zeit Temperatur Niederschläge Wind Luftdruck Luftfeuchtigkeit
    00:00 +11°C° 0 mm 3 m/S 761 mmHg 54%
    01:00 +11°C° 0 mm 3 m/S 761 mmHg 54%
    02:00 +11°C° 0 mm 3 m/S 761 mmHg 54%
    03:00 +10°C° 0 mm 3 m/S 761 mmHg 54%
    04:00 +10°C° 0 mm 3 m/S 761 mmHg 54%
    05:00 +11°C° 0 mm 3 m/S 761 mmHg 53%
    06:00 +12°C° 0 mm 3 m/S 761 mmHg 52%
    07:00 +13°C° 0 mm 2 m/S 761 mmHg 50%
    08:00 +16°C° 0 mm 2 m/S 761 mmHg 44%
    09:00 +20°C° 0 mm 1 m/S 761 mmHg 38%
    10:00 +22°C° 0 mm 1 m/S 761 mmHg 32%
    11:00 +24°C° 0 mm 1 m/S 760 mmHg 31%
    12:00 +25°C° 0 mm 1 m/S 760 mmHg 29%
    13:00 +26°C° 0 mm 1 m/S 760 mmHg 27%
    14:00 +25°C° 0 mm 1 m/S 760 mmHg 30%
    15:00 +25°C° 0 mm 2 m/S 760 mmHg 33%
    16:00 +24°C° 0 mm 2 m/S 759 mmHg 36%
    17:00 +22°C° 0 mm 1 m/S 759 mmHg 42%
    18:00 +20°C° 0 mm 1 m/S 760 mmHg 49%
    19:00 +16°C° 0 mm 1 m/S 760 mmHg 55%
    20:00 +16°C° 0 mm 1 m/S 760 mmHg 55%
    21:00 +16°C° 0 mm 1 m/S 759 mmHg 55%
    22:00 +15°C° 0 mm 1 m/S 759 mmHg 55%
    23:00 +15°C° 0 mm 1 m/S 759 mmHg 55%

    Morgen, 22 September, Sonntag

    Zeit Temperatur Niederschläge Wind Luftdruck Luftfeuchtigkeit
    00:00 +15°C° 0 mm 1 m/S 759 mmHg 54%
    01:00 +15°C° 0 mm 1 m/S 759 mmHg 54%
    02:00 +15°C° 0 mm 1 m/S 759 mmHg 54%
    03:00 +14°C° 0 mm 1 m/S 759 mmHg 54%
    04:00 +14°C° 0 mm 1 m/S 759 mmHg 54%
    05:00 +15°C° 0 mm 1 m/S 758 mmHg 53%
    06:00 +16°C° 0 mm 1 m/S 758 mmHg 52%
    07:00 +18°C° 0 mm 1 m/S 758 mmHg 51%
    08:00 +20°C° 0 mm 1 m/S 758 mmHg 45%
    09:00 +21°C° 0 mm 2 m/S 758 mmHg 39%
    10:00 +25°C° 0 mm 2 m/S 757 mmHg 32%
    11:00 +25°C° 0 mm 2 m/S 757 mmHg 33%
    12:00 +26°C° 0 mm 2 m/S 757 mmHg 33%
    13:00 +26°C° 0 mm 3 m/S 756 mmHg 33%
    14:00 +25°C° 0 mm 3 m/S 756 mmHg 37%
    15:00 +25°C° 0 mm 2 m/S 756 mmHg 42%
    16:00 +24°C° 0 mm 2 m/S 756 mmHg 46%
    17:00 +23°C° 0 mm 2 m/S 756 mmHg 48%
    18:00 +21°C° 0 mm 2 m/S 756 mmHg 50%
    19:00 +20°C° 0 mm 2 m/S 756 mmHg 51%
    20:00 +20°C° 0 mm 2 m/S 756 mmHg 50%
    21:00 +20°C° 0 mm 2 m/S 756 mmHg 49%
    22:00 +20°C° 0 mm 2 m/S 756 mmHg 48%
    23:00 +19°C° 0 mm 2 m/S 756 mmHg 48%

    übermorgen, 23 September, Montag

    Zeit Temperatur Niederschläge Wind Luftdruck Luftfeuchtigkeit
    00:00 +19°C° 0 mm 2 m/S 756 mmHg 48%
    01:00 +20°C° 0 mm 1 m/S 756 mmHg 49%
    02:00 +20°C° 0 mm 1 m/S 755 mmHg 50%
    03:00 +20°C° 0 mm 1 m/S 755 mmHg 51%
    04:00 +20°C° 0 mm 1 m/S 755 mmHg 52%
    05:00 +20°C° 0 mm 1 m/S 755 mmHg 52%
    06:00 +21°C° 0 mm 1 m/S 755 mmHg 52%
    07:00 +21°C° 0 mm 1 m/S 755 mmHg 53%
    08:00 +21°C° 0 mm 2 m/S 755 mmHg 53%
    09:00 +23°C° 0 mm 2 m/S 755 mmHg 53%
    10:00 +24°C° 0 mm 2 m/S 755 mmHg 53%
    11:00 +25°C° 0 mm 2 m/S 755 mmHg 54%
    12:00 +26°C° 0 mm 3 m/S 754 mmHg 55%
    13:00 +27°C° 0 mm 3 m/S 754 mmHg 57%
    14:00 +26°C° 0.1 mm 3 m/S 754 mmHg 60%
    15:00 +26°C° 0.1 mm 3 m/S 753 mmHg 63%
    16:00 +26°C° 0.1 mm 2 m/S 753 mmHg 66%
    17:00 +24°C° 0.1 mm 2 m/S 753 mmHg 71%
    18:00 +23°C° 0.1 mm 2 m/S 753 mmHg 76%
    19:00 +22°C° 0.1 mm 1 m/S 753 mmHg 81%
    20:00 +21°C° 0.3 mm 1 m/S 753 mmHg 83%
    21:00 +20°C° 0.3 mm 2 m/S 753 mmHg 84%
    22:00 +20°C° 0.3 mm 2 m/S 753 mmHg 86%
    23:00 +20°C° 0.9 mm 2 m/S 753 mmHg 86%

    24 September, Dienstag

    Zeit Temperatur Niederschläge Wind Luftdruck Luftfeuchtigkeit
    00:00 +21°C° 0.9 mm 1 m/S 753 mmHg 86%
    01:00 +21°C° 0.9 mm 1 m/S 753 mmHg 87%
    02:00 +20°C° 0.7 mm 1 m/S 752 mmHg 87%
    03:00 +20°C° 0.7 mm 1 m/S 752 mmHg 88%
    04:00 +20°C° 0.7 mm 1 m/S 752 mmHg 89%
    05:00 +20°C° 0.1 mm 1 m/S 752 mmHg 87%
    06:00 +21°C° 0.1 mm 1 m/S 752 mmHg 85%
    07:00 +21°C° 0.1 mm 1 m/S 752 mmHg 83%
    08:00 +23°C° 0 mm 1 m/S 752 mmHg 77%
    09:00 +25°C° 0 mm 1 m/S 753 mmHg 71%
    10:00 +26°C° 0 mm 1 m/S 753 mmHg 65%
    11:00 +27°C° 0.2 mm 1 m/S 753 mmHg 63%
    12:00 +27°C° 0.2 mm 2 m/S 753 mmHg 61%
    13:00 +28°C° 0.2 mm 2 m/S 752 mmHg 59%
    14:00 +27°C° 0.2 mm 2 m/S 752 mmHg 63%
    15:00 +26°C° 0.2 mm 2 m/S 752 mmHg 67%
    16:00 +25°C° 0.2 mm 2 m/S 752 mmHg 72%
    17:00 +24°C° 0.1 mm 2 m/S 752 mmHg 77%
    18:00 +23°C° 0.1 mm 2 m/S 752 mmHg 82%
    19:00 +22°C° 0.1 mm 1 m/S 752 mmHg 86%
    20:00 +21°C° 0 mm 1 m/S 753 mmHg 87%
    21:00 +21°C° 0 mm 1 m/S 753 mmHg 88%
    22:00 +20°C° 0 mm 1 m/S 753 mmHg 88%
    23:00 +20°C° 0 mm 1 m/S 753 mmHg 88%

    25 September, Mittwoch

    Zeit Temperatur Niederschläge Wind Luftdruck Luftfeuchtigkeit
    00:00 +19°C° 0 mm 1 m/S 753 mmHg 88%
    01:00 +19°C° 0 mm 1 m/S 753 mmHg 88%
    02:00 +19°C° 0 mm 1 m/S 753 mmHg 88%
    03:00 +18°C° 0 mm 1 m/S 752 mmHg 87%
    04:00 +18°C° 0 mm 1 m/S 752 mmHg 87%
    05:00 +19°C° 0 mm 1 m/S 752 mmHg 84%
    06:00 +19°C° 0 mm 1 m/S 752 mmHg 81%
    07:00 +20°C° 0 mm 1 m/S 752 mmHg 78%
    08:00 +22°C° 0 mm 1 m/S 753 mmHg 72%
    09:00 +24°C° 0 mm 1 m/S 753 mmHg 65%
    10:00 +26°C° 0 mm 1 m/S 753 mmHg 58%
    11:00 +26°C° 0 mm 1 m/S 753 mmHg 56%
    12:00 +27°C° 0 mm 2 m/S 752 mmHg 54%
    13:00 +27°C° 0 mm 2 m/S 752 mmHg 51%
    14:00 +27°C° 0 mm 2 m/S 752 mmHg 55%
    15:00 +26°C° 0 mm 2 m/S 752 mmHg 58%
    16:00 +25°C° 0 mm 2 m/S 752 mmHg 61%
    17:00 +24°C° 0 mm 1 m/S 752 mmHg 68%
    18:00 +22°C° 0 mm 1 m/S 752 mmHg 75%
    19:00 +19°C° 0 mm 0 m/S 752 mmHg 82%
    20:00 +18°C° 0 mm 0 m/S 753 mmHg 83%
    21:00 +18°C° 0 mm 0 m/S 753 mmHg 84%
    22:00 +18°C° 0 mm 0 m/S 753 mmHg 84%
    23:00 +20°C° 0 mm 1 m/S 753 mmHg 84%

    26 September, Donnerstag

    Zeit Temperatur Niederschläge Wind Luftdruck Luftfeuchtigkeit
    00:00 +20°C° 0 mm 1 m/S 753 mmHg 83%
    01:00 +20°C° 0 mm 1 m/S 753 mmHg 83%
    02:00 +20°C° 0 mm 1 m/S 753 mmHg 83%
    03:00 +20°C° 0 mm 1 m/S 753 mmHg 83%
    04:00 +19°C° 0 mm 1 m/S 752 mmHg 84%
    05:00 +20°C° 0 mm 1 m/S 752 mmHg 81%
    06:00 +20°C° 0 mm 1 m/S 752 mmHg 78%
    07:00 +21°C° 0 mm 1 m/S 752 mmHg 75%
    08:00 +23°C° 0 mm 1 m/S 753 mmHg 69%
    09:00 +24°C° 0 mm 2 m/S 753 mmHg 62%
    10:00 +26°C° 0 mm 2 m/S 753 mmHg 55%
    11:00 +26°C° 0.1 mm 2 m/S 753 mmHg 57%
    12:00 +26°C° 0.1 mm 2 m/S 753 mmHg 59%
    13:00 +27°C° 0.1 mm 3 m/S 753 mmHg 61%
    14:00 +26°C° 0.1 mm 2 m/S 753 mmHg 66%
    15:00 +25°C° 0.1 mm 1 m/S 753 mmHg 70%
    16:00 +24°C° 0.1 mm 1 m/S 753 mmHg 75%
    17:00 +23°C° 0 mm 1 m/S 753 mmHg 79%
    18:00 +22°C° 0 mm 1 m/S 754 mmHg 84%
    19:00 +21°C° 0 mm 1 m/S 754 mmHg 88%
    20:00 +21°C° 0 mm 1 m/S 754 mmHg 88%
    21:00 +21°C° 0 mm 1 m/S 755 mmHg 87%
    22:00 +21°C° 0 mm 1 m/S 755 mmHg 87%
    23:00 +20°C° 0 mm 1 m/S 755 mmHg 87%
    Mehr zeigen